Wind_Speed
21 21 18 17 17 17 20 20 22 23 24 27 26 23 24 22 18 17 15 16 21 23 22 21 18 16 17 18 18 16 13 15 14 9 10 13 13 12 12 13 14 14 13 14 15 16 18 22 27 29 30 30 30 30 31 32 31 31 32 32 32 31 30 32 32 32 32 31 31 34 37 39 41 47 52 52 50 50 49 48 46 43 42 41 39 36 33
22 24 22 21 21 20 20 21 21 22 23 26 26 25 26 25 23 22 21 22 24 23 22 24 21 18 17 16 16 16 15 18 17 14 15 15 16 15 14 13 13 13 14 15 15 16 17 19 24 27 28 29 30 31 31 31 31 30 29 29 30 31 32 32 31 31 31 30 31 33 37 44 47 49 52 52 51 51 50 49 47 44 42 39 34 33 31
17 22 23 24 24 22 22 22 22 23 24 25 26 25 25 24 24 25 25 24 22 18 20 24 23 21 20 17 16 17 16 17 16 16 17 16 12 13 13 11 11 13 14 15 16 17 18 21 25 27 27 28 30 30 30 31 31 30 28 28 28 29 30 29 28 30 32 31 30 33 41 48 49 48 50 52 52 52 51 49 46 42 40 36 28 24 25
13 16 19 23 24 23 24 23 23 26 24 22 22 21 22 22 23 24 24 21 16 15 18 22 22 23 25 24 22 18 15 15 16 15 14 13 14 13 9 8 10 13 15 16 18 20 21 24 27 28 27 28 29 29 29 30 30 30 29 28 28 26 25 25 28 31 31 29 29 35 44 50 50 49 50 50 50 47 42 41 41 37 36 36 28 20 19
12 16 19 19 18 18 19 19 22 25 24 22 22 21 23 23 21 19 18 16 15 15 16 19 22 25 26 25 23 20 16 16 16 16 14 13 16 13 8 9 11 14 16 16 19 20 21 24 29 29 29 29 29 29 28 28 28 29 28 28 28 28 28 29 31 31 30 30 30 35 42 46 46 46 46 47 43 33 24 25 27 26 28 29 23 18 16
11 17 18 16 15 15 14 16 20 24 25 25 24 23 24 23 20 18 17 17 18 18 17 20 23 23 21 19 19 18 17 15 15 18 18 16 15 12 7 8 11 13 15 15 17 20 22 25 28 29 29 28 28 28 28 27 27 27 27 27 28 29 30 31 31 30 31 32 32 32 34 35 35 34 36 38 34 23 15 15 15 15 17 17 16 16 16
9 11 13 14 15 13 12 13 17 22 25 26 26 26 26 25 24 24 23 21 20 19 20 22 22 21 20 19 19 19 20 19 17 19 18 14 12 10 10 11 13 14 15 16 17 20 24 26 27 27 27 27 28 28 27 26 26 26 27 28 28 28 29 29 29 29 29 30 29 28 27 27 27 26 26 26 24 19 16 14 12 12 13 13 13 14 14
9 9 11 13 11 10 11 12 14 17 20 23 23 22 23 24 25 26 24 22 21 21 20 19 19 21 23 21 18 17 19 19 17 19 18 14 12 11 11 12 13 14 16 18 18 21 24 26 27 27 28 28 28 27 27 26 27 27 28 29 28 28 27 27 27 26 27 27 26 24 23 23 24 25 23 20 19 18 17 15 13 12 12 12 13 13 14
9 9 11 11 10 12 13 9 6 5 8 11 10 10 14 17 19 22 24 23 23 22 19 16 17 19 21 19 15 14 14 14 12 14 16 16 15 13 12 12 13 14 17 19 20 22 25 27 27 27 27 27 27 27 27 26 27 27 27 27 28 27 27 27 26 24 25 24 23 22 22 22 23 23 22 20 19 18 17 16 14 12 12 13 13 14 15
9 10 10 10 12 13 10 5 3 3 5 7 7 6 10 14 18 20 22 23 24 23 21 21 20 18 15 13 10 11 14 15 12 11 12 14 15 13 11 12 13 14 17 19 21 24 25 26 27 27 27 28 28 27 27 27 27 27 27 27 29 29 28 27 26 26 25 24 23 23 22 22 22 21 20 20 20 19 16 16 14 12 12 12 12 13 15
10 10 10 10 11 7 3 4 4 2 5 7 6 7 11 12 16 19 19 21 24 23 21 21 20 16 12 11 10 13 17 17 14 10 10 12 13 12 12 13 14 16 18 20 22 24 24 24 25 25 26 27 27 26 27 27 27 26 27 27 27 27 25 24 25 27 26 23 23 23 21 21 20 19 18 19 19 17 15 14 14 13 13 12 12 13 14
12 12 10 9 8 3 4 3 2 2 4 5 4 10 8 7 11 16 18 20 21 22 21 19 17 15 12 10 10 12 14 13 10 9 10 11 12 11 12 14 15 17 18 19 20 22 25 25 25 26 26 25 25 25 26 27 26 25 25 24 23 23 23 24 26 27 24 22 22 21 20 19 17 16 16 16 16 15 14 14 14 14 14 13 12 13 13
14 14 11 9 7 5 8 5 2 2 1 5 8 8 3 9 14 15 16 19 20 21 20 16 14 13 11 9 8 6 7 8 8 8 9 10 10 11 11 13 15 17 17 18 19 20 23 25 26 27 26 24 23 24 25 25 24 24 24 23 23 23 23 23 25 24 23 22 21 19 18 18 17 17 18 17 17 17 15 14 15 14 14 13 13 13 12
13 12 11 11 8 4 7 6 3 1 5 7 5 3 5 8 12 14 15 17 19 19 18 15 12 8 7 9 11 9 8 7 7 8 9 9 10 11 11 13 16 16 16 18 19 19 21 24 25 26 26 24 22 22 22 23 23 24 25 24 23 23 22 22 22 22 23 22 20 19 19 18 18 19 19 17 17 16 14 13 13 12 12 12 12 12 11
11 11 11 12 8 4 5 6 6 4 4 3 1 5 6 7 9 11 12 14 16 17 18 18 15 10 9 10 11 11 10 8 7 8 9 9 10 10 12 14 17 18 16 17 19 21 22 24 25 25 24 22 20 19 20 21 23 24 24 23 23 22 21 20 20 21 22 21 19 20 20 20 20 20 19 17 15 13 13 12 11 11 10 11 11 12 11
11 12 11 5 2 6 6 4 4 3 0 2 2 3 5 6 6 7 7 10 13 15 16 13 8 6 9 9 8 9 10 8 8 8 8 9 10 12 14 16 18 19 18 18 20 23 23 23 24 24 23 20 18 18 19 21 23 24 24 23 23 22 21 21 21 20 19 19 18 18 19 20 20 18 17 15 13 13 13 13 11 12 11 11 12 12 12
6 3 2 4 7 7 6 4 4 4 3 3 2 1 3 4 4 5 5 6 7 5 4 2 2 1 6 9 11 11 10 11 11 11 11 11 12 13 15 17 20 21 20 19 20 20 20 20 21 21 21 19 18 18 19 21 22 23 22 23 23 23 23 23 23 22 22 21 19 19 19 19 17 16 15 14 13 14 14 12 12 12 12 12 12 11 11
6 8 7 8 8 8 9 9 8 7 5 4 3 2 3 4 6 7 8 8 6 3 6 6 6 5 6 9 11 11 12 14 15 13 13 12 13 14 16 18 20 22 21 20 20 19 19 19 19 18 19 20 20 20 20 21 23 23 22 21 20 21 22 22 23 25 25 23 20 19 19 18 15 14 15 14 13 14 13 12 12 12 12 13 13 12 12
6 5 7 9 10 10 11 11 11 11 9 7 7 6 6 6 5 6 8 11 13 7 9 9 9 10 10 10 11 12 13 15 16 16 15 14 14 14 16 17 19 20 19 17 17 17 17 16 17 17 18 19 19 20 22 23 25 26 25 23 19 19 21 22 22 23 23 22 20 18 18 18 17 16 15 14 13 12 12 13 13 13 13 13 13 12 12
5 6 10 13 14 14 13 11 10 11 11 11 11 10 9 8 5 4 7 4 8 8 11 13 13 14 14 12 12 12 12 12 13 14 14 14 14 15 17 18 18 18 17 16 16 16 15 14 14 14 15 15 17 19 21 24 25 25 24 23 22 21 21 21 20 19 19 20 19 19 19 19 19 17 16 14 14 13 12 13 13 13 13 12 12 12 12
7 10 12 14 13 13 14 14 12 12 12 13 14 13 12 12 11 10 12 9 5 7 12 15 16 17 16 15 15 15 12 11 12 12 13 13 14 15 16 18 17 17 16 16 16 15 15 14 14 14 14 15 17 18 19 21 23 23 22 23 23 22 21 20 19 18 18 18 18 19 19 15 13 14 14 12 12 12 11 10 9 9 10 10 9 10 10
7 9 12 11 10 9 10 12 14 13 13 16 18 16 14 13 13 13 13 12 11 12 15 16 17 17 16 16 16 16 13 12 13 13 12 13 13 14 16 17 17 17 16 15 16 16 15 14 15 15 15 16 17 17 18 18 19 21 22 22 21 21 20 19 19 18 18 18 18 20 18 13 11 13 13 10 10 11 10 9 8 7 7 6 5 4 2
4 9 12 10 10 10 9 11 13 13 14 17 18 17 16 16 15 14 13 13 13 15 17 18 17 17 16 16 16 15 14 13 13 13 13 12 12 14 15 15 15 15 15 15 15 15 14 14 14 15 15 16 16 16 16 15 17 19 20 19 19 19 18 19 20 19 19 19 19 19 18 16 13 13 12 11 11 11 10 9 9 8 8 7 6 4 6
3 11 13 11 13 14 11 12 14 14 14 16 16 16 16 16 17 15 14 14 14 14 15 16 17 17 16 15 15 14 13 13 13 13 14 14 13 13 15 15 14 14 13 12 13 13 12 13 14 14 14 15 15 16 16 16 17 19 19 18 19 19 18 20 21 21 20 20 19 18 18 18 17 15 13 11 9 8 8 9 9 9 11 11 10 7 6
7 13 12 12 16 15 11 12 15 15 14 14 14 13 14 15 15 15 14 14 14 14 15 14 16 17 16 15 14 13 12 12 13 13 12 12 12 12 13 13 13 12 11 10 10 10 11 11 12 14 14 14 14 16 17 18 19 19 19 19 19 20 21 22 21 21 20 21 20 18 18 18 17 16 14 12 10 8 7 8 9 9 10 11 12 10 7
12 14 13 15 16 12 9 10 12 13 13 14 12 11 11 12 13 14 14 13 12 13 13 12 13 15 16 14 12 12 12 12 13 13 11 9 10 11 11 12 12 11 10 10 9 9 10 11 11 13 14 14 14 14 16 17 17 18 18 18 19 21 22 22 21 20 19 19 18 17 17 17 16 16 15 14 13 12 10 8 8 9 9 10 11 11 10
10 12 12 13 13 10 10 10 10 10 11 12 11 9 9 10 10 10 11 11 11 11 12 12 11 12 13 13 12 12 12 12 11 11 9 9 9 10 10 10 10 9 9 9 8 8 8 9 10 11 12 13 13 14 15 15 15 16 17 18 19 20 20 20 20 19 18 18 17 16 16 16 15 15 14 13 13 14 13 11 11 10 9 9 10 10 10
7 8 8 9 11 12 12 12 11 10 9 9 9 8 7 8 7 7 8 9 10 9 10 12 12 11 10 11 10 10 11 12 11 10 9 9 9 9 9 9 8 7 8 7 7 7 7 8 10 11 11 13 13 15 16 16 15 15 17 18 18 19 19 19 18 17 17 16 16 15 15 15 14 13 12 10 11 11 11 11 11 12 11 10 11 10 9
10 10 12 13 13 13 12 12 12 11 10 9 7 6 6 5 5 6 8 10 10 10 10 12 13 11 10 10 11 10 9 9 9 10 9 10 10 9 9 9 6 4 5 5 5 5 7 10 11 11 11 12 14 15 17 17 16 16 18 19 19 19 19 17 16 15 15 14 15 15 14 13 12 11 9 7 8 9 9 10 10 12 11 11 13 12 11
10 11 13 13 13 12 12 12 12 12 11 9 7 5 5 5 5 7 8 8 8 8 8 9 10 10 10 9 9 9 9 8 9 10 10 10 10 9 10 10 6 2 3 4 4 5 7 10 12 12 12 13 15 17 17 17 17 15 14 15 16 17 17 16 15 15 14 13 13 13 11 9 8 7 6 6 6 8 9 10 11 12 11 11 12 12 12
11 12 13 13 12 13 13 11 10 10 9 7 6 6 5 5 6 6 6 6 6 7 8 8 7 8 8 7 7 7 7 7 8 9 9 10 10 9 9 9 7 4 3 3 3 5 8 10 12 12 13 14 16 17 17 17 15 13 12 13 15 17 18 17 16 15 14 13 12 11 9 7 7 7 8 8 9 9 10 11 11 12 12 12 12 12 15
11 11 11 11 10 11 11 9 9 9 8 6 6 6 5 4 5 5 3 3 4 4 5 5 5 5 5 5 6 6 4 3 3 3 4 6 8 9 8 8 7 6 5 3 1 4 7 10 11 12 13 15 17 18 17 16 14 13 13 13 14 15 15 15 14 14 14 14 13 11 9 9 9 9 10 10 10 10 10 10 11 11 11 11 12 15 18
10 9 8 8 7 8 8 7 7 7 6 6 5 4 4 4 5 4 2 1 1 2 2 2 3 3 4 4 3 4 3 2 0 1 2 3 5 7 7 7 6 6 5 3 2 4 7 10 12 13 14 16 18 17 16 15 14 14 14 13 13 13 13 13 13 14 14 13 12 11 11 11 11 10 11 10 9 9 9 9 9 9 9 7 10 16 17
8 8 7 7 6 6 6 6 5 5 5 5 5 5 5 5 4 4 2 2 2 3 4 3 2 2 3 3 2 3 3 3 3 3 3 3 3 4 4 5 4 4 4 3 4 5 8 11 14 15 16 17 18 17 16 14 14 14 15 14 14 14 14 14 14 13 13 12 12 11 11 11 10 10 9 8 8 7 6 6 7 7 7 6 11 14 14
7 8 7 6 6 6 5 5 5 5 5 6 5 5 4 4 3 2 2 2 2 1 2 4 4 3 4 4 4 4 5 5 4 4 4 3 2 2 1 2 2 2 2 1 3 5 7 9 11 14 16 17 17 16 14 13 13 14 14 14 14 14 14 13 13 12 12 12 12 11 10 10 8 8 8 7 7 6 5 5 5 5 6 7 10 10 11
7 7 6 5 5 5 4 4 5 5 5 5 4 4 3 4 4 4 3 3 3 3 3 2 3 4 4 4 4 4 5 5 5 5 5 4 3 2 2 2 2 4 5 4 4 4 6 6 5 8 13 14 13 12 12 12 13 15 15 14 14 14 13 12 12 11 11 11 11 10 9 9 8 8 8 7 7 6 6 7 6 5 6 8 8 9 11
7 6 5 4 4 4 4 4 4 5 6 5 4 4 4 5 5 5 5 5 4 4 4 4 4 3 3 4 4 5 5 5 5 5 4 4 4 6 7 8 8 6 6 5 5 5 6 8 9 9 10 10 8 9 12 13 14 15 14 13 12 12 12 12 12 11 10 9 9 9 9 8 8 8 8 7 8 8 8 8 8 7 8 8 8 9 11
9 8 7 7 6 5 5 6 6 7 7 7 6 6 6 6 7 8 7 7 6 5 5 5 5 5 5 5 5 5 5 4 5 5 6 6 8 10 10 10 10 10 8 7 7 7 6 6 7 8 9 9 9 11 13 15 14 13 13 12 11 11 11 10 10 10 9 9 8 8 8 8 8 9 9 8 8 9 8 8 8 8 7 8 9 9 10
9 9 9 9 8 6 6 7 8 8 7 7 7 7 7 8 9 10 9 8 8 7 6 7 7 7 7 7 7 7 7 6 6 7 8 9 11 12 13 12 12 12 10 9 9 10 9 8 7 8 10 11 11 11 11 10 9 8 10 10 8 8 8 8 7 8 8 8 7 7 7 8 8 8 9 8 8 8 8 7 7 7 7 7 7 8 8
9 9 9 9 8 7 7 7 7 8 8 8 8 7 7 8 9 10 9 9 9 9 9 8 8 7 7 8 8 9 9 8 8 9 9 9 10 11 11 12 12 11 10 10 11 11 10 9 10 10 10 11 11 9 7 6 7 7 6 7 6 7 7 7 7 7 6 6 7 7 8 8 8 8 8 8 8 8 8 7 8 8 8 7 7 7 7
10 10 10 9 8 8 7 7 8 8 9 9 9 9 9 9 9 9 9 9 9 10 10 10 9 8 8 8 8 10 11 11 11 10 9 9 8 8 8 9 10 10 10 10 10 10 9 9 9 9 9 10 11 10 9 8 6 6 6 6 7 7 7 6 6 7 6 7 8 8 7 8 8 8 8 8 8 8 8 8 8 7 7 7 7 7 7
11 11 10 10 9 9 9 9 9 9 10 9 9 9 9 9 9 10 10 10 10 10 10 11 10 10 9 9 9 10 11 12 12 12 12 11 10 8 7 8 10 10 8 6 7 8 9 8 8 8 7 7 8 8 8 6 5 5 6 5 5 6 7 7 8 8 8 8 8 8 8 8 8 7 7 8 8 8 8 8 8 9 9 8 8 8 8
11 10 10 9 9 9 10 10 10 9 10 10 10 10 10 10 10 11 10 10 10 10 10 10 10 10 10 10 10 10 10 11 11 11 12 13 13 12 10 10 10 10 7 5 6 9 10 9 9 9 8 7 7 5 3 3 2 3 4 4 3 4 5 5 6 6 7 7 7 7 8 8 8 7 8 8 8 8 9 9 9 9 9 7 6 7 8
10 9 9 9 9 10 10 10 10 9 9 9 10 10 9 10 10 10 10 10 10 10 10 10 10 10 10 10 10 9 9 9 9 8 8 9 11 12 11 10 9 9 8 7 8 9 10 9 9 8 7 6 5 2 5 5 3 2 0 0 2 4 5 5 5 5 6 7 7 7 7 8 8 8 9 9 8 9 10 8 5 4 4 3 3 5 7
10 10 10 10 10 10 10 9 8 7 8 9 10 10 9 9 10 9 9 8 8 9 9 10 10 9 9 9 9 8 9 10 10 9 7 6 7 8 9 9 9 9 8 7 7 8 8 7 7 6 5 4 3 4 6 3 0 1 1 1 2 3 3 4 5 6 6 6 7 8 9 9 8 8 9 9 8 7 7 5 3 4 4 4 5 6 6
10 10 10 10 10 9 8 8 8 8 8 9 9 8 8 8 9 9 8 7 6 7 9 9 9 9 9 9 8 8 8 9 10 10 9 7 7 8 9 9 9 8 7 6 6 6 6 6 5 3 3 4 2 4 4 1 0 2 2 2 2 3 3 4 5 5 5 6 7 7 8 8 9 10 10 8 5 4 4 4 4 5 5 5 6 6 5
9 10 9 9 9 8 6 7 9 9 8 7 6 6 7 8 8 8 7 6 5 5 8 8 8 7 7 6 7 9 9 8 8 8 8 6 7 7 6 6 6 6 5 4 5 5 5 5 3 1 1 1 1 4 4 2 2 3 3 3 3 4 4 4 4 5 5 6 5 5 6 6 7 8 8 5 4 4 5 5 6 7 7 6 7 7 7
8 8 9 9 9 8 7 8 8 8 6 6 6 6 5 5 7 7 7 5 4 3 6 8 8 6 5 6 9 12 11 9 8 8 8 8 6 5 3 4 4 4 3 1 2 4 4 4 4 4 4 4 4 5 6 5 4 3 4 5 5 5 5 6 6 7 8 7 6 6 6 6 7 7 6 6 7 8 8 8 9 10 10 9 9 8 7
6 7 9 10 9 9 8 8 6 5 6 8 7 5 4 4 7 8 8 7 7 7 8 9 9 8 8 9 11 12 10 7 7 7 8 9 9 8 5 2 5 3 3 4 2 3 6 6 6 6 7 7 7 7 8 8 7 6 6 7 6 6 7 6 5 6 7 8 8 8 8 8 8 8 7 8 9 9 9 10 11 11 11 12 12 10 8
8 8 8 9 10 10 10 8 7 7 7 7 7 6 6 6 8 9 9 9 9 9 9 9 8 8 9 10 11 10 9 9 9 10 10 9 8 8 7 4 1 0 2 6 7 5 6 8 8 9 9 9 9 9 9 10 9 7 7 7 7 8 7 6 5 6 7 8 9 9 9 10 11 10 10 11 11 10 9 10 10 9 8 10 13 13 12
9 7 6 7 9 10 10 9 8 8 8 8 8 9 9 7 6 7 9 9 9 7 7 7 7 7 8 10 9 9 10 10 10 11 12 11 10 9 9 8 7 4 4 4 7 7 5 7 9 10 10 9 9 9 9 9 10 9 9 9 10 10 10 9 9 9 10 10 10 11 11 12 12 12 11 12 12 11 11 12 12 11 11 12 14 13 12
10 8 7 8 9 10 10 9 9 9 9 8 9 9 8 8 6 6 7 8 8 7 7 8 8 8 8 9 9 9 9 10 10 11 11 11 10 11 11 11 10 8 6 6 7 8 7 8 9 9 9 8 9 10 10 10 10 11 11 11 11 11 12 11 11 11 12 11 11 12 12 12 13 13 13 13 13 13 13 13 14 14 13 14 14 12 11
Wind_Direction
226 237 240 229 221 227 230 221 216 218 224 229 229 229 227 226 236 239 221 220 233 237 239 234 223 214 206 205 216 224 238 255 250 222 195 194 200 212 212 201 200 203 201 195 188 186 188 188 187 189 191 192 193 194 194 197 196 192 190 191 190 188 189 191 193 193 194 194 188 181 179 180 186 193 197 201 208 212 212 213 213 215 218 218 216 213 209
218 227 237 239 235 233 233 230 225 220 222 228 232 236 235 231 236 241 235 230 230 229 234 240 240 237 227 218 217 219 227 240 244 236 229 216 195 196 210 206 194 198 205 201 190 185 186 186 185 186 188 190 193 194 194 194 195 194 190 185 184 187 190 192 192 189 185 184 181 179 181 186 191 197 200 204 209 212 213 213 212 213 212 212 213 209 204
226 221 225 233 238 238 236 233 230 229 228 226 226 230 235 237 239 239 238 239 238 230 230 235 237 239 244 242 227 214 213 224 231 231 235 240 231 217 219 215 195 191 200 203 193 186 185 184 184 185 188 190 192 193 192 191 193 193 187 183 183 185 188 189 184 177 174 173 175 182 188 191 194 198 201 204 208 212 215 213 210 209 207 206 205 199 196
235 226 226 229 234 240 242 237 233 232 232 231 231 229 227 231 236 239 238 239 239 234 233 236 234 231 238 246 242 230 219 217 226 234 234 242 255 250 221 201 200 194 195 200 197 192 189 186 185 185 187 188 189 191 190 189 190 189 186 187 184 180 178 173 165 165 169 172 177 186 193 196 199 202 203 203 208 212 213 211 210 209 207 209 207 195 189
235 230 232 236 236 239 242 238 237 239 237 232 235 237 233 230 232 236 237 239 240 238 236 240 240 233 231 239 244 242 237 233 238 247 242 235 249 249 203 187 207 201 195 200 201 198 193 189 187 185 185 186 187 188 187 186 187 186 185 187 180 171 167 164 161 166 173 179 187 193 197 200 202 202 203 205 209 212 210 207 208 207 207 210 207 193 187
233 227 227 234 236 235 236 234 236 243 247 243 239 239 237 234 236 238 238 239 242 241 237 238 244 242 233 232 240 245 246 243 242 247 245 237 242 241 208 207 221 206 199 202 200 199 197 192 189 186 184 183 182 182 181 181 183 182 180 179 170 161 160 162 165 172 176 183 192 196 196 198 200 202 205 209 212 214 208 202 201 197 196 196 190 184 187
230 226 222 226 228 231 237 238 233 236 243 249 252 251 244 237 237 241 242 239 237 235 233 233 238 245 243 236 234 239 246 244 235 237 239 229 221 218 204 210 216 205 201 201 196 196 197 192 188 184 182 180 178 178 177 176 177 175 173 173 164 155 159 166 170 175 179 184 190 192 191 195 199 203 207 211 215 216 215 212 204 193 188 184 182 185 190
223 218 218 224 234 241 238 237 237 235 236 242 249 256 253 244 238 237 239 241 240 236 236 235 232 233 236 237 232 230 244 249 238 232 233 222 213 214 205 202 204 200 201 201 194 191 191 189 185 182 182 180 177 176 175 172 172 170 171 174 167 157 161 168 169 172 179 183 184 186 188 193 201 206 208 209 212 213 213 212 203 193 189 190 192 193 193
218 219 223 227 243 248 237 230 243 260 263 262 263 270 273 273 264 246 236 238 242 239 236 240 244 235 227 228 226 219 229 242 237 231 232 228 225 223 211 204 203 198 198 198 190 184 184 184 183 182 180 177 173 170 169 167 167 168 171 173 168 163 166 170 171 174 179 182 181 181 186 193 200 205 205 204 204 204 204 204 202 196 195 198 198 196 196
215 222 228 229 235 236 223 189 110 28 340 335 344 312 277 283 285 266 244 236 239 238 230 229 241 247 234 225 228 229 231 232 227 226 228 228 229 224 208 202 198 189 191 192 185 182 183 182 180 178 176 171 166 164 165 164 163 165 168 170 170 170 171 171 172 176 180 184 183 182 186 193 197 201 202 202 202 201 201 205 209 208 204 204 202 200 206
220 223 227 228 231 228 173 129 112 50 353 2 356 287 255 256 273 275 264 249 240 238 234 229 231 238 236 227 230 240 243 235 220 217 225 225 224 219 206 200 190 181 185 185 179 178 178 176 175 174 172 169 165 162 161 161 160 162 165 167 169 171 170 167 169 173 178 183 184 182 185 191 194 196 198 199 201 200 202 209 216 217 214 212 210 208 217
218 221 227 232 233 191 128 133 128 77 7 351 268 245 254 292 305 302 294 280 260 245 237 232 229 227 225 230 238 245 246 231 201 200 220 220 217 214 207 197 182 174 177 177 175 176 174 171 172 171 169 166 162 158 156 156 158 160 158 156 159 163 164 164 169 174 176 179 181 180 181 184 186 188 190 192 193 191 193 201 206 210 211 211 215 218 220
215 217 224 237 241 189 159 167 121 70 310 265 236 231 299 343 331 323 315 307 291 267 246 233 229 224 210 217 238 251 243 215 190 196 207 203 207 211 199 181 167 163 167 173 178 179 172 166 165 163 160 157 156 154 152 152 153 152 148 148 152 157 160 163 169 173 175 177 177 173 172 176 181 184 184 184 184 182 184 189 190 197 206 209 215 220 219
218 220 224 232 236 180 146 157 139 152 232 235 243 292 344 338 325 324 322 316 304 282 261 250 250 245 217 216 231 237 231 209 193 199 196 189 199 197 173 157 155 157 162 169 171 166 159 155 154 153 151 149 148 148 146 145 145 145 145 147 150 154 157 161 166 171 173 175 174 169 169 175 179 181 182 182 180 178 179 179 177 184 203 211 211 212 213
217 217 222 232 228 171 151 172 167 180 230 241 316 325 329 332 330 331 325 312 300 282 263 254 253 248 229 223 227 228 220 201 188 193 189 181 179 163 146 149 157 158 156 155 153 149 148 150 150 146 140 135 135 140 140 140 142 142 143 145 146 147 151 154 161 168 172 173 171 169 172 174 175 179 181 177 173 172 169 165 165 175 195 209 211 210 209
219 222 220 225 161 136 155 175 157 153 249 7 7 328 333 335 326 332 329 302 285 277 267 256 247 235 219 210 210 210 199 177 167 163 156 157 160 155 153 152 149 147 143 138 140 142 143 145 143 136 130 129 134 138 137 136 138 139 140 142 141 142 146 152 159 164 166 168 169 169 172 172 172 175 175 166 164 168 166 162 168 179 189 201 210 212 206
214 240 193 123 99 108 120 102 74 80 76 43 14 353 12 357 329 322 315 282 262 259 254 191 116 194 212 190 184 188 173 149 140 138 138 144 146 143 138 127 120 120 119 117 118 120 121 123 126 128 132 133 129 127 127 130 134 136 139 141 142 144 149 155 161 162 162 166 170 169 170 169 168 169 168 163 163 168 167 169 178 185 190 197 204 208 205
111 66 74 106 110 105 105 94 69 59 72 68 46 63 77 43 8 352 342 329 333 65 103 111 115 131 154 148 143 142 131 118 112 107 106 107 112 117 118 113 109 108 105 101 99 97 99 104 110 119 127 128 125 125 128 131 135 137 138 137 141 149 154 159 164 165 164 166 167 165 167 169 166 167 171 171 167 167 173 182 188 191 194 195 196 198 204
138 117 106 96 88 88 95 92 71 57 67 83 74 60 63 58 22 7 10 346 334 8 71 79 78 82 79 78 86 90 91 92 90 88 88 87 89 97 102 103 104 104 101 98 97 97 100 106 111 115 121 125 129 133 134 136 139 140 139 139 146 157 160 162 163 162 161 162 159 157 164 173 177 178 180 177 171 173 185 191 191 193 195 195 197 200 205
154 139 121 97 80 73 77 81 69 52 57 78 87 81 76 80 80 74 77 36 326 355 61 75 74 74 71 67 71 74 74 77 80 81 84 84 84 86 87 89 95 100 100 99 98 97 98 104 112 117 119 126 133 136 138 141 142 142 143 146 153 160 161 160 159 157 158 158 156 160 172 181 182 181 182 185 182 183 192 195 190 193 198 201 205 208 209
128 124 129 118 97 84 80 77 64 49 49 61 70 77 82 86 86 78 77 78 44 32 58 67 66 65 63 62 65 67 64 63 67 72 76 78 78 80 82 82 85 90 96 100 101 101 101 104 111 113 117 127 137 139 142 145 145 146 148 150 153 156 158 158 157 157 160 160 161 169 175 173 164 163 172 187 186 178 184 191 188 192 203 207 211 218 222
154 157 162 146 114 97 95 84 66 55 56 57 54 50 50 57 65 66 63 59 53 52 55 57 58 59 55 53 58 61 57 50 52 61 72 77 77 78 81 83 82 83 87 92 94 97 100 104 110 115 121 132 138 140 145 151 151 151 152 153 152 153 157 159 158 158 161 163 167 173 172 158 140 143 152 162 162 159 168 184 187 191 201 203 204 215 198
164 151 149 134 107 99 98 90 78 64 58 58 53 42 31 27 33 44 50 44 40 45 49 49 52 54 51 49 52 54 51 44 40 45 55 65 72 76 79 80 80 79 81 83 85 89 93 98 103 109 116 124 129 131 136 142 145 148 153 154 152 153 158 159 158 160 162 163 167 173 174 170 162 154 148 146 147 151 162 175 184 197 213 217 203 156 99
76 108 111 106 102 103 98 89 84 74 63 60 55 44 33 24 20 25 35 38 37 41 44 43 45 48 47 45 47 47 47 43 38 40 46 50 57 69 76 77 76 74 74 77 81 85 90 95 101 104 105 111 120 125 128 132 140 148 155 156 155 157 155 153 159 166 165 162 168 174 174 175 177 171 161 158 158 162 178 191 204 216 222 222 215 186 137
93 94 92 93 95 98 93 82 76 73 72 71 62 49 37 28 19 18 27 33 35 39 40 37 37 41 42 40 39 41 41 37 32 37 45 46 45 52 63 68 70 70 72 75 81 88 93 97 102 106 107 111 119 129 137 143 149 158 164 164 159 156 151 153 166 174 166 161 170 174 171 173 176 175 174 176 174 173 184 195 204 207 203 205 211 206 189
105 101 97 96 94 90 87 79 69 67 74 76 70 58 45 33 22 16 18 24 28 34 38 35 33 37 39 35 30 33 37 33 27 29 36 42 41 42 48 54 59 66 73 75 78 89 102 107 110 115 119 121 123 132 141 146 154 164 170 166 158 154 154 160 168 168 162 163 170 172 170 169 169 172 177 175 163 156 157 163 173 177 175 180 191 197 199
112 125 119 108 101 89 80 80 76 69 69 72 70 59 44 39 32 19 15 18 23 30 36 36 34 37 37 30 24 25 29 28 24 22 24 27 30 33 37 41 48 60 73 79 81 85 98 112 119 121 123 125 131 139 142 143 150 160 161 158 156 157 159 161 161 160 162 166 167 167 167 166 165 168 172 168 160 158 159 164 166 161 156 163 174 183 193
75 113 109 100 101 97 91 91 87 71 60 69 77 68 45 36 31 24 22 21 20 25 32 31 31 35 31 21 17 20 24 23 17 11 11 11 11 17 25 28 36 54 70 84 99 104 108 117 120 120 122 131 141 146 144 142 147 150 150 151 154 158 160 160 160 159 160 160 160 159 161 163 163 161 161 167 173 172 173 177 166 147 137 145 153 155 163
45 73 85 90 97 102 100 94 84 69 57 57 66 70 67 53 32 26 29 23 14 15 20 20 22 27 24 17 12 10 17 19 7 357 357 358 356 2 9 7 12 52 79 91 108 121 125 125 125 128 136 143 147 149 149 149 153 157 159 160 159 159 161 160 155 150 147 145 145 147 151 156 158 156 158 171 183 187 194 191 165 139 130 138 139 134 138
44 65 83 88 89 88 86 80 73 68 62 56 54 60 66 60 41 30 29 23 14 11 14 15 16 14 14 15 7 358 1 7 358 349 349 351 350 356 359 354 350 33 106 108 122 147 150 141 138 147 157 157 154 155 156 156 155 153 152 148 146 149 151 148 142 139 137 134 135 139 144 147 149 157 168 173 179 191 191 172 150 136 135 142 143 139 144
55 54 63 70 71 70 71 72 71 70 67 67 67 61 52 53 54 40 21 12 12 13 13 15 16 10 6 6 357 343 340 346 345 340 341 343 343 348 353 350 342 344 14 55 108 156 165 157 152 159 167 164 158 157 156 152 146 135 118 110 117 127 134 138 143 145 145 145 146 150 156 159 161 171 177 175 181 185 171 159 158 155 152 159 164 157 154
73 61 58 65 72 71 70 71 71 68 63 60 55 47 37 45 59 58 37 13 9 8 5 9 11 3 347 342 342 330 305 281 281 299 318 328 330 336 342 340 329 321 319 327 112 154 166 163 157 160 164 160 156 155 153 146 141 137 130 125 126 130 132 137 143 147 149 153 156 159 164 164 165 172 175 177 184 183 171 170 179 176 171 178 173 156 157
87 78 66 63 72 79 79 78 76 71 64 55 46 48 53 48 43 49 63 39 327 320 336 357 359 328 302 298 317 335 329 314 163 76 9 333 321 323 324 316 304 295 286 274 203 167 170 165 158 159 162 160 155 153 152 146 141 140 139 137 136 138 138 138 140 141 145 151 154 156 158 158 161 167 170 170 175 180 180 183 186 189 193 183 148 147 166
85 83 69 57 62 75 80 82 85 84 75 63 57 56 58 51 39 28 23 21 14 3 351 344 344 338 325 323 342 16 18 18 33 33 17 342 314 308 296 276 264 262 260 248 214 187 174 165 161 162 165 165 163 160 155 150 145 141 140 139 138 139 141 143 144 144 144 143 141 142 147 153 157 159 161 166 171 175 183 191 198 207 203 146 118 142 175
78 78 72 65 64 66 69 75 85 90 86 81 76 69 63 70 77 63 38 45 63 49 348 341 351 12 25 17 12 23 34 34 27 19 8 351 339 335 289 226 195 170 165 184 189 176 164 161 169 175 174 172 172 169 162 155 147 142 141 141 142 143 145 147 146 144 141 140 141 145 149 152 153 152 155 165 169 171 183 201 213 219 196 142 121 144 176
78 75 74 73 72 73 76 80 84 88 90 91 88 83 81 91 101 107 109 107 112 124 123 76 36 31 42 41 34 35 36 35 32 25 8 357 7 40 72 93 114 133 132 111 104 127 125 107 120 166 175 176 175 172 167 160 154 150 148 146 146 147 146 144 141 139 140 145 148 147 142 139 142 150 159 166 172 182 197 202 200 198 188 169 151 156 174
99 100 101 103 110 116 117 116 116 112 110 111 111 108 104 105 106 107 107 101 88 76 76 84 85 73 55 48 54 59 51 41 40 39 34 36 57 70 71 63 61 77 94 79 62 80 96 83 81 111 144 156 154 148 146 145 147 150 152 152 152 149 145 142 143 144 145 148 147 142 142 147 155 163 172 182 190 195 198 195 192 197 200 190 176 171 175
113 118 123 126 132 135 129 126 128 127 124 120 115 111 108 103 95 86 79 77 74 64 58 68 76 74 66 62 65 66 62 59 58 58 63 75 79 77 73 66 61 63 64 57 53 68 88 96 100 111 123 124 117 117 125 136 148 157 158 153 151 149 145 146 147 146 146 148 148 150 158 170 178 180 185 193 199 201 202 202 202 207 213 210 202 196 190
118 122 123 123 124 123 117 112 110 109 108 104 99 97 95 90 85 80 74 72 70 67 68 70 68 64 62 62 62 60 57 60 69 73 74 77 81 81 79 75 71 67 64 65 72 77 81 96 114 123 126 123 114 104 103 107 115 131 143 144 143 143 143 145 148 149 150 153 158 168 179 186 190 195 198 199 201 202 205 206 203 202 206 211 211 209 206
114 118 120 121 122 120 114 106 98 92 86 81 79 77 74 74 74 74 73 69 61 56 58 61 62 61 56 52 54 59 59 60 69 76 75 78 85 88 84 77 72 68 66 71 77 75 72 83 99 109 117 122 120 115 108 89 72 82 117 143 149 146 148 152 158 166 173 176 179 190 198 198 198 202 202 199 198 198 195 192 194 198 202 206 207 212 214
97 103 109 113 113 110 106 102 96 88 78 71 69 68 65 64 64 64 63 61 57 55 53 53 53 56 56 53 56 60 61 62 66 67 65 69 78 83 81 74 69 67 70 78 82 77 70 74 85 95 105 114 118 126 142 154 151 146 156 168 170 170 176 187 192 195 197 193 194 202 207 202 200 201 200 198 201 200 196 192 194 200 209 214 214 218 223
93 95 97 100 101 102 101 98 94 90 83 75 70 67 63 60 59 56 54 52 50 50 51 52 52 52 52 53 56 56 54 56 59 60 59 59 62 65 73 76 69 64 66 79 92 91 83 79 82 88 96 107 120 133 147 161 165 162 165 175 189 198 204 208 208 205 200 194 196 204 207 203 202 201 199 201 202 199 198 204 208 207 210 218 222 225 231
84 86 91 94 95 97 97 94 90 90 88 83 79 74 67 61 59 57 54 51 49 46 47 49 51 51 50 48 48 49 51 53 56 59 63 62 59 59 69 77 73 63 52 49 73 83 80 75 77 83 89 101 118 142 187 209 178 153 154 161 181 203 208 204 203 202 199 198 201 203 203 203 203 198 197 202 208 207 207 212 216 212 211 218 232 242 251
79 78 81 84 85 88 90 88 87 89 88 84 80 78 74 67 62 57 54 55 54 51 47 46 46 48 53 54 50 45 45 48 52 59 69 72 66 63 67 74 75 67 55 50 64 75 75 79 91 98 102 103 95 2 293 264 208 151 111 213 222 226 223 218 216 214 210 210 209 203 202 207 210 206 205 210 219 223 222 221 226 239 244 253 262 265 268
81 78 78 79 79 79 80 81 82 88 93 90 83 77 76 77 73 63 58 59 61 59 55 49 42 38 46 57 63 61 53 49 48 46 50 63 66 59 57 65 70 63 53 53 70 80 83 95 108 110 108 102 67 354 326 307 9 18 334 275 263 265 249 233 232 229 222 220 216 209 208 211 213 214 217 221 226 236 242 241 239 244 249 251 256 259 261
76 74 74 76 77 77 81 89 89 79 74 79 79 72 68 73 73 67 62 60 65 73 73 62 48 41 40 43 55 69 69 66 65 60 55 62 67 56 47 54 62 56 43 46 65 85 106 123 129 122 114 112 56 340 337 358 282 286 269 241 258 267 244 227 230 227 218 217 219 217 217 218 219 223 230 233 232 239 249 244 236 241 252 264 270 268 267
78 78 75 76 82 85 87 90 87 74 63 63 69 67 65 64 62 60 56 45 45 85 97 83 65 58 51 39 46 54 48 43 54 59 52 57 80 86 77 66 55 36 19 33 59 85 125 148 161 191 161 153 292 305 298 243 217 248 257 252 260 263 251 240 237 233 226 222 219 219 225 232 234 238 243 240 215 208 217 223 231 241 247 251 255 258 261
74 82 80 78 82 87 86 83 81 74 68 64 57 48 57 71 69 66 60 40 21 78 104 86 67 63 61 58 65 62 42 18 19 29 15 6 25 56 85 100 81 44 358 4 108 127 160 189 215 234 239 244 266 279 272 255 241 244 251 248 246 249 248 241 235 232 229 222 215 219 227 228 227 231 233 227 218 219 225 232 240 246 252 254 256 257 258
74 72 74 69 60 55 62 76 79 70 71 76 64 31 11 56 69 61 46 26 15 30 48 48 48 55 55 52 58 61 47 20 17 20 6 356 0 4 6 88 112 89 2 324 290 211 204 217 232 238 239 245 254 265 269 265 253 241 245 253 257 256 252 252 260 266 254 237 226 225 229 231 232 232 230 230 234 238 244 251 254 256 260 264 266 265 268
61 46 52 63 59 46 41 47 48 37 41 54 50 25 13 34 58 57 40 17 11 23 30 25 25 36 36 30 30 33 28 18 14 12 7 3 359 351 343 338 337 225 322 320 310 277 216 203 215 228 234 241 249 257 265 270 268 256 247 248 255 259 257 260 281 296 284 267 257 250 243 240 243 245 244 247 253 259 264 267 266 262 260 265 267 266 267
56 40 34 53 63 59 49 45 43 37 29 23 22 23 18 14 29 49 41 19 6 11 18 12 5 7 11 10 9 6 2 359 0 2 1 358 350 340 335 330 316 283 250 270 293 287 246 215 213 214 217 235 253 255 253 257 263 264 257 251 252 254 252 247 247 251 250 249 256 262 262 257 256 255 254 255 259 261 263 265 265 261 258 262 264 261 256
56 49 37 43 53 55 50 41 37 37 34 26 23 23 15 357 354 22 33 19 4 0 3 360 352 348 351 356 355 349 342 341 343 343 342 338 331 326 326 329 329 325 312 296 292 287 276 265 254 237 229 241 256 257 251 248 249 252 256 259 261 262 260 258 259 261 257 247 243 249 255 257 258 257 256 255 253 251 252 255 257 258 259 261 260 257 254
Height
655 649 645 643 646 650 648 647 650 652 652 653 656 659 657 659 672 672 661 666 674 664 653 651 647 644 647 648 646 644 645 644 640 641 646 651 656 661 661 659 658 659 659 658 658 660 661 664 668 672 676 681 684 687 691 694 697 701 705 710 716 722 726 729 732 735 738 743 746 747 748 749 750 750 751 753 754 755 757 758 760 761 764 768 773 776 779
654 651 649 645 645 648 646 643 643 646 649 651 652 653 648 649 657 655 652 661 663 652 647 645 639 636 635 635 636 638 643 645 642 642 645 645 648 656 659 656 655 656 657 657 656 658 660 662 665 669 673 676 680 683 686 690 694 697 701 706 712 718 721 724 728 732 736 740 743 743 744 743 744 745 747 750 752 752 753 754 756 758 761 766 771 773 776
655 648 648 648 648 648 647 645 643 642 645 647 648 650 649 650 653 649 649 657 655 642 636 637 635 633 631 632 635 637 639 641 640 641 642 640 640 644 646 648 650 652 655 656 657 657 658 659 662 665 669 672 676 679 682 687 691 694 698 704 709 713 716 720 725 729 733 736 738 739 740 740 740 742 745 747 748 750 750 751 754 757 759 764 769 771 773
663 649 649 651 647 647 650 649 646 643 643 644 642 641 643 648 654 653 654 659 655 641 632 632 632 631 633 635 635 634 634 635 636 638 638 639 639 639 639 643 647 650 652 655 656 654 654 655 658 662 666 669 673 675 679 683 687 691 695 699 705 709 713 717 722 725 729 732 733 735 736 737 739 740 743 745 747 748 749 750 754 756 758 761 766 769 772
669 655 654 652 652 667 670 653 643 641 638 638 639 635 632 634 642 651 655 652 644 634 632 635 634 630 632 634 631 630 631 631 632 634 634 636 636 635 637 641 643 646 648 650 651 651 651 653 655 658 662 665 669 672 676 680 683 687 691 695 701 706 710 715 718 722 726 729 731 732 733 735 737 739 742 744 745 747 749 752 754 756 758 761 764 768 771
673 660 654 657 671 685 671 642 634 639 636 635 638 636 630 628 631 635 638 636 632 631 632 636 636 629 625 626 625 624 626 628 631 631 630 630 631 632 635 637 639 642 643 644 646 648 649 651 653 656 659 662 666 669 673 677 680 684 688 692 698 704 708 711 715 719 723 725 728 730 731 734 737 739 742 743 744 747 749 752 754 755 758 761 763 766 769
668 659 662 681 688 672 646 631 629 632 632 632 634 631 624 623 626 627 628 629 627 627 627 627 628 625 620 619 620 621 621 621 624 627 627 626 628 631 633 634 637 640 640 640 641 643 646 649 651 654 657 660 663 666 669 674 677 681 685 690 695 701 705 709 713 717 720 723 726 728 731 734 737 739 742 743 745 747 749 751 753 755 758 760 762 764 767
666 668 676 688 678 648 632 633 629 626 630 633 637 641 631 620 621 623 625 626 622 619 619 617 617 619 618 616 616 617 618 615 615 620 622 621 625 628 628 630 633 634 635 635 635 637 641 644 648 650 653 656 659 662 666 670 674 678 683 687 692 698 702 707 711 714 717 721 723 726 729 732 735 738 740 742 744 746 749 751 753 754 757 759 761 763 765
665 673 674 669 663 652 644 641 635 633 637 636 642 656 648 626 618 617 617 621 620 615 615 615 613 611 614 620 618 613 614 614 613 614 615 616 619 621 621 624 626 628 630 631 632 635 637 640 644 647 650 652 655 658 663 668 672 676 680 684 690 695 700 704 708 712 716 719 721 724 726 729 732 735 737 739 742 745 747 750 752 754 756 757 759 761 763
660 668 673 669 672 669 652 642 638 635 637 635 640 657 655 635 622 615 612 616 618 614 614 616 614 613 621 631 627 615 611 611 611 613 613 612 614 615 616 619 621 624 628 629 630 634 635 637 641 644 647 650 653 657 661 666 670 675 679 683 688 693 697 702 706 710 714 717 719 721 724 726 729 731 734 736 739 741 744 747 749 752 754 756 758 759 762
660 667 675 672 670 664 650 641 637 634 635 633 640 660 660 637 622 617 612 612 613 610 611 611 613 622 636 640 630 616 609 606 607 613 614 611 611 611 612 615 618 622 626 628 630 632 633 637 641 644 647 650 652 656 660 665 669 673 678 683 687 691 696 700 705 709 712 715 717 719 722 725 728 730 733 735 737 739 741 744 747 750 752 754 756 758 761
660 664 668 660 652 650 646 641 636 633 633 635 654 677 667 637 627 627 621 617 612 606 606 608 612 622 633 634 623 611 605 603 605 611 613 612 611 610 609 611 616 621 625 627 630 631 632 635 639 643 647 650 654 657 660 664 668 672 678 683 687 692 696 700 704 708 710 713 716 718 722 725 728 731 733 735 737 738 739 742 745 748 751 753 755 756 759
657 661 665 658 645 637 637 637 634 631 636 649 668 674 657 639 636 634 628 626 619 607 602 605 608 608 611 615 614 609 607 609 609 610 609 609 610 609 609 612 616 621 625 628 630 631 632 634 637 641 646 650 655 659 660 664 668 672 678 683 688 693 697 700 704 707 709 713 715 718 721 725 728 731 732 734 735 736 737 739 742 746 749 751 753 755 757
652 652 658 660 650 634 629 633 631 632 649 666 665 650 640 639 639 633 630 630 624 613 605 603 602 600 600 606 611 612 613 614 613 611 609 609 610 610 611 615 618 622 625 627 630 632 633 635 638 643 647 652 657 660 662 664 668 673 678 684 688 693 696 700 703 706 709 712 715 717 720 724 727 729 731 733 734 734 735 737 740 744 748 749 751 753 755
648 651 655 661 656 638 629 633 635 639 651 658 650 640 637 638 636 634 634 632 625 618 611 605 602 602 603 608 611 613 615 615 613 612 611 611 612 613 615 618 620 621 623 626 630 633 635 638 641 645 649 654 658 662 664 667 670 674 679 684 689 693 697 701 705 707 710 713 715 717 719 722 726 729 731 734 734 735 736 737 740 744 747 749 750 752 754
645 651 649 648 643 632 628 634 639 641 641 639 639 641 641 639 637 638 639 637 629 620 613 607 605 606 607 611 615 618 617 614 613 613 613 613 615 615 616 618 618 620 624 628 632 636 638 640 643 646 650 655 660 663 667 670 673 677 680 684 689 693 697 702 707 710 713 715 717 719 721 723 727 731 733 734 735 736 737 738 740 743 746 749 750 751 752
633 636 634 632 630 628 629 631 634 635 635 634 636 640 642 643 642 639 640 640 629 619 615 614 615 618 619 618 620 621 617 613 613 614 615 615 615 615 617 620 622 626 629 632 635 637 640 642 645 648 652 657 661 665 669 672 676 679 683 686 688 691 696 701 705 709 712 714 716 718 721 725 728 732 734 734 735 737 737 738 740 743 745 748 749 749 750
630 633 634 632 631 631 630 631 634 634 635 635 636 638 643 646 645 643 645 642 630 620 620 622 625 629 626 620 619 618 614 613 615 616 617 618 617 619 622 625 627 629 631 634 636 639 643 646 648 652 655 658 662 666 670 673 677 680 684 688 691 695 699 702 705 707 709 712 714 716 719 724 727 731 733 734 735 736 737 738 740 742 744 745 746 748 749
639 646 645 639 638 638 635 637 639 637 636 637 639 642 645 648 650 650 652 653 644 632 628 630 632 632 629 627 626 623 621 622 623 624 626 627 626 627 629 629 631 633 634 637 640 643 647 650 652 656 659 662 665 668 670 673 676 679 682 687 693 699 702 704 706 708 709 711 713 715 719 723 727 730 732 733 734 735 736 737 738 740 742 743 744 745 746
641 648 647 645 646 646 643 645 648 645 641 641 642 644 647 651 655 655 655 661 659 646 637 636 635 634 636 637 636 635 635 634 632 632 634 634 634 634 635 635 637 639 640 643 647 650 652 654 657 660 663 666 668 670 672 674 676 678 681 686 692 697 701 704 707 709 710 711 712 715 719 723 726 728 731 732 732 734 735 735 736 738 740 741 742 743 744
647 650 649 648 651 654 653 653 655 654 650 647 647 649 651 653 657 659 658 662 663 655 646 641 638 640 642 641 640 643 645 643 640 639 638 638 639 640 641 642 644 645 647 650 653 655 658 660 661 663 666 669 671 673 675 678 678 680 683 687 691 696 699 703 707 710 711 711 713 716 720 722 724 726 728 730 730 732 733 734 735 737 739 740 741 742 742
655 651 646 645 650 659 662 659 658 659 656 653 655 658 659 659 661 662 662 663 661 654 647 643 642 645 646 645 645 648 650 649 647 645 643 643 643 644 645 647 649 650 653 655 656 658 661 662 664 665 668 670 672 673 676 679 681 683 685 688 691 695 699 702 706 709 710 712 714 717 720 722 724 726 728 729 730 731 733 734 736 737 738 740 741 742 742
650 640 639 642 647 659 665 662 660 660 658 658 662 666 668 668 665 663 664 664 661 655 650 647 647 648 650 650 651 652 654 654 652 650 649 648 648 648 650 651 652 655 657 658 659 660 662 663 665 666 668 670 672 674 676 679 682 684 687 689 692 696 699 702 706 708 710 712 715 718 720 722 725 726 728 730 731 732 733 735 736 738 739 740 742 743 743
645 639 643 646 649 659 666 663 661 661 661 663 668 671 673 673 672 669 667 666 663 661 658 655 653 653 654 655 656 658 659 658 656 656 656 655 653 653 653 654 657 658 660 661 662 662 664 665 666 668 669 671 673 675 678 680 682 685 688 690 692 695 699 702 705 707 710 712 715 718 720 722 724 725 727 729 731 732 733 734 736 738 739 740 741 742 743
647 647 651 651 654 662 666 664 664 664 665 668 672 675 677 678 678 676 673 669 667 667 666 664 661 658 659 660 660 661 661 660 660 661 660 660 660 658 657 658 660 661 662 663 664 665 666 667 668 669 671 673 675 677 679 681 683 686 689 691 692 695 698 701 704 706 708 711 714 717 719 721 723 724 726 728 729 731 732 734 736 737 738 739 740 741 742
649 653 655 657 660 664 666 668 671 672 671 672 675 679 681 681 681 681 679 676 674 672 672 672 668 665 665 666 666 666 665 664 664 663 663 664 664 662 662 663 663 664 664 665 666 668 669 669 670 671 672 674 676 678 680 681 683 686 689 691 692 695 698 700 702 704 706 709 712 715 717 719 721 722 723 724 726 728 731 733 735 736 736 737 738 739 741
654 654 655 659 664 668 670 673 677 678 677 677 679 682 683 683 684 685 683 682 679 676 676 675 673 671 670 671 671 670 668 667 667 667 666 667 666 666 666 666 666 666 666 667 669 671 670 670 672 672 673 675 677 679 681 683 684 687 689 691 693 695 697 699 700 703 706 708 711 713 715 717 718 719 721 722 723 726 728 730 731 733 735 736 737 738 740
658 655 656 661 669 675 677 678 680 680 680 681 682 685 686 687 688 687 685 683 681 678 677 676 674 673 672 672 673 672 670 669 671 671 670 670 670 669 669 668 668 668 669 670 671 671 671 671 672 673 674 676 678 680 683 684 686 688 690 692 694 697 698 699 700 702 704 706 708 711 714 715 716 717 718 720 721 723 725 727 728 731 734 735 736 737 739
667 663 663 666 671 675 676 678 680 681 682 684 686 688 690 691 691 689 687 684 682 680 679 677 675 675 674 674 674 673 672 674 675 675 675 674 674 672 672 671 670 670 670 671 672 672 671 671 672 675 677 678 680 683 685 686 688 690 691 692 694 696 697 699 700 701 703 706 708 710 713 714 714 716 717 719 720 722 723 725 727 730 733 734 735 737 739
678 674 671 672 675 676 677 678 681 683 686 689 691 692 692 693 692 690 689 688 687 685 683 681 680 680 679 679 679 679 678 677 678 677 676 676 675 674 674 674 672 670 670 671 672 672 672 671 673 676 678 679 681 684 685 687 689 690 691 692 693 694 696 698 700 702 705 706 708 710 712 713 714 715 716 718 720 721 722 724 727 730 732 734 736 738 740
685 684 681 680 680 680 681 683 685 688 691 692 693 693 693 692 692 692 691 690 689 688 686 685 685 685 684 684 685 684 683 681 680 679 678 678 677 676 676 675 675 674 673 673 673 672 672 672 674 677 679 680 682 684 686 687 689 690 691 692 693 695 697 699 700 702 705 706 708 710 711 712 713 715 716 718 719 720 721 724 727 729 731 733 735 737 739
688 689 689 687 687 687 688 689 691 692 693 694 694 694 693 692 693 693 693 692 691 690 689 688 688 687 687 687 687 686 685 683 682 681 680 680 679 678 677 677 677 676 676 675 674 673 673 674 676 678 679 681 683 684 686 688 689 690 692 694 695 697 699 699 701 702 704 706 708 709 710 711 713 714 716 717 718 719 721 724 727 728 729 731 732 734 737
690 692 693 693 693 694 695 695 695 695 695 695 694 693 693 692 692 692 693 693 692 691 690 689 688 688 688 688 687 686 685 683 681 681 681 682 681 680 680 680 679 679 678 677 675 675 675 676 677 679 680 682 683 685 687 688 689 691 693 694 696 698 700 700 702 703 704 705 707 708 709 711 712 714 715 717 718 719 721 723 725 726 727 728 731 733 735
692 694 696 696 696 696 697 696 696 696 695 695 694 693 693 693 692 693 692 692 692 692 691 689 688 688 689 688 686 685 685 684 682 681 682 682 683 682 682 682 681 680 679 677 676 676 676 677 679 680 681 682 684 685 686 688 689 691 693 694 697 699 700 701 702 703 703 705 706 707 709 711 712 714 716 717 719 721 722 723 724 725 725 727 731 733 735
694 695 696 697 696 696 696 696 696 696 695 696 696 695 695 694 694 695 694 693 694 694 692 690 688 688 687 687 686 685 684 684 684 683 683 683 683 683 682 681 680 680 679 678 677 677 677 678 679 680 681 682 683 685 686 688 690 691 694 695 697 699 700 701 702 703 704 706 707 709 710 712 713 715 717 718 720 722 723 724 724 724 725 728 731 733 735
695 696 698 698 698 698 697 697 697 697 697 697 697 697 696 696 696 696 695 694 694 693 692 691 690 689 688 688 687 686 686 686 686 686 686 685 684 683 682 681 680 679 679 679 678 678 679 680 680 680 681 683 684 686 688 689 690 693 695 696 697 699 701 701 703 704 705 706 708 710 711 713 715 716 717 719 720 721 722 723 724 725 726 729 731 733 734
696 697 699 699 699 699 698 699 699 698 698 699 699 699 698 697 696 696 695 694 694 694 693 692 691 691 690 690 689 688 689 688 688 688 688 686 685 684 683 682 681 680 680 680 681 681 682 682 682 683 684 686 687 689 690 691 692 694 696 697 698 700 701 702 703 705 706 707 709 711 712 713 715 717 718 719 719 720 721 723 724 725 726 728 730 732 733
696 698 699 700 700 700 699 700 700 699 699 699 699 699 698 697 696 696 697 696 696 696 695 694 693 693 692 692 691 690 690 690 689 689 688 687 686 686 685 685 685 684 684 685 685 684 684 685 685 686 688 689 691 691 692 693 695 695 696 698 699 700 701 703 704 705 707 709 710 711 712 713 714 715 717 718 718 719 721 722 723 724 725 726 728 729 730
697 698 699 699 700 700 700 699 699 699 698 698 698 698 697 696 696 697 698 698 698 698 697 696 695 694 694 693 692 691 691 691 690 690 689 688 688 688 688 688 688 688 688 688 688 687 687 687 688 689 691 692 693 694 695 696 696 696 698 699 701 701 702 704 705 707 708 709 710 710 711 712 713 714 715 716 718 719 720 721 722 723 724 724 726 726 727
696 698 698 699 700 700 700 700 699 699 698 698 698 698 698 697 697 698 698 698 699 698 697 697 696 696 696 695 694 694 694 693 692 691 690 690 689 689 689 690 691 691 691 690 690 690 690 690 691 692 693 694 695 697 697 698 699 700 701 701 702 703 704 705 706 707 708 708 709 710 710 711 712 713 714 715 717 718 719 720 721 722 722 723 724 725 726
697 698 699 699 700 701 701 701 701 701 700 700 700 700 700 699 699 699 699 699 699 699 698 698 697 697 698 697 696 696 695 694 693 692 692 691 690 689 689 691 692 692 692 692 692 692 693 693 694 695 695 696 697 699 699 700 701 702 702 702 702 703 704 705 706 707 707 708 709 709 709 710 711 712 713 714 715 716 717 718 719 720 720 721 722 723 724
698 699 700 701 702 702 702 703 703 703 704 704 703 702 702 701 701 700 700 700 700 700 699 699 699 699 699 698 697 696 696 695 694 694 693 692 691 690 690 692 694 694 693 693 693 693 694 695 696 697 697 698 699 700 700 701 701 701 701 702 702 702 703 704 705 705 706 707 708 708 708 709 710 711 712 713 714 715 716 716 717 718 718 719 719 720 721
699 699 700 701 703 703 703 704 705 705 705 705 705 705 704 703 703 703 703 702 703 702 701 701 701 700 700 699 698 698 697 697 696 696 695 695 694 694 693 694 695 695 695 695 695 695 696 697 699 699 700 700 700 701 701 700 700 700 700 701 702 702 703 703 703 704 705 705 706 707 708 708 709 710 712 712 712 713 714 714 714 714 715 716 717 717 718
701 701 701 702 703 703 704 705 706 706 706 706 706 706 706 705 705 705 705 705 705 705 704 703 702 701 701 701 701 700 700 699 698 698 697 697 697 697 697 697 697 697 697 697 697 698 699 700 701 702 702 702 702 702 700 699 699 699 700 701 701 702 701 702 703 704 705 705 705 706 707 708 709 709 709 710 710 710 710 711 713 714 715 716 717 718 718
703 703 703 704 704 704 705 706 706 706 706 706 707 707 707 706 707 707 707 707 707 706 706 705 704 702 701 701 701 702 702 701 700 700 699 698 698 699 699 698 698 698 698 699 699 701 702 703 703 704 704 703 703 702 700 699 699 701 702 703 703 703 702 703 703 704 704 705 705 706 707 707 708 708 708 708 708 708 708 710 712 715 716 717 718 718 719
704 705 705 705 706 706 706 706 706 706 706 706 706 707 707 706 706 707 707 706 706 706 706 706 705 704 703 702 701 701 701 701 701 701 701 701 701 701 700 700 700 700 700 701 702 703 704 705 705 705 705 704 704 703 702 702 702 703 703 704 704 704 704 704 704 704 705 705 705 705 705 705 706 706 705 705 706 708 710 712 714 715 716 717 718 718 719
705 706 706 706 707 707 707 707 706 707 707 707 707 707 707 706 706 706 706 706 705 705 705 705 704 704 704 703 701 701 701 701 701 701 701 700 701 702 702 701 702 702 702 702 703 704 704 705 706 705 705 705 705 704 703 703 703 704 704 705 706 705 705 705 705 705 705 705 705 706 706 705 705 705 705 706 708 710 712 713 714 715 716 716 717 717 718
706 706 706 707 706 706 707 707 708 708 709 709 709 708 707 707 706 706 706 705 704 703 703 703 703 703 703 703 702 703 704 703 702 702 702 701 700 700 701 701 701 702 702 702 703 704 705 705 705 706 706 706 706 705 704 703 703 704 705 705 706 706 705 705 705 705 705 705 706 707 707 706 706 706 707 708 709 710 710 711 712 712 712 713 714 714 715
707 706 706 707 707 707 707 707 707 708 708 709 710 709 708 706 706 707 707 706 704 703 703 703 703 704 704 704 704 705 706 705 705 705 704 703 702 701 701 701 701 702 702 701 701 702 702 703 704 705 705 706 706 706 705 704 703 704 705 705 705 705 705 705 705 705 704 704 705 706 706 706 706 706 707 707 707 707 707 708 709 709 710 711 712 712 714
709 710 709 709 710 711 710 710 710 710 710 710 710 709 708 707 707 708 710 709 707 706 706 706 705 705 705 706 706 706 706 706 706 706 705 704 703 703 702 701 701 702 702 702 701 701 701 702 703 703 704 705 706 705 705 704 703 703 704 704 705 705 705 705 706 706 706 705 704 704 704 704 704 705 705 706 706 706 706 707 708 708 709 710 711 711 713
713 714 713 712 712 713 714 714 714 713 713 712 711 711 710 709 708 709 711 711 710 709 709 708 708 707 707 707 707 707 707 707 707 707 706 705 704 703 702 701 700 700 700 701 701 701 701 701 702 702 703 704 704 704 704 704 704 703 703 703 703 704 704 704 704 705 705 705 705 704 703 703 703 704 704 704 705 705 706 707 707 707 708 709 709 709 710
714 715 714 714 714 715 716 716 716 715 715 714 713 713 713 711 710 709 711 712 712 712 711 711 710 709 709 709 709 708 708 708 707 707 706 706 704 703 702 700 699 699 699 699 699 700 700 700 700 700 701 702 702 702 702 702 702 702 702 702 702 702 702 702 702 703 702 703 703 703 703 703 703 703 703 703 704 704 705 705 706 706 706 707 707 707 708